CAPE
0 0 0 0 0 0 0 0 0 0 0 0 0 0 0 0 0 0 0 0 0 0 0 176 200 304 136 26 5 17 1 0 0 0 0 0 2 3 1 0 0 0 0
0 0 0 0 0 0 0 0 0 0 0 0 0 0 0 0 0 0 0 0 0 0 0 4 271 178 115 37 1 2 0 0 0 0 0 1 0 0 0 0 0 0 0
0 0 0 0 0 0 0 0 0 0 0 0 0 0 0 3 2 6 1 0 0 0 0 0 71 158 126 33 1 1 0 0 0 0 0 0 0 0 0 0 0 0 0
0 1 1 0 0 0 0 0 0 0 0 0 0 0 0 0 0 1 0 0 0 0 0 0 9 38 153 74 7 0 0 0 0 0 0 0 0 0 0 0 0 0 0
5 4 3 0 0 0 0 0 0 0 0 0 0 0 0 0 0 0 0 0 0 0 0 0 0 72 189 148 18 0 0 0 0 0 0 0 0 0 5 0 0 0 0
2 7 6 0 0 0 0 0 0 0 0 0 0 0 0 0 4 12 0 0 0 0 0 0 0 9 148 160 123 8 0 0 0 0 0 0 0 0 13 1 0 0 0
4 5 11 6 5 0 0 0 0 0 0 0 0 0 0 27 1 13 42 0 0 0 0 0 0 10 112 156 186 55 1 1 2 0 0 0 0 0 1 0 0 0 0
7 6 8 2 0 0 0 0 0 0 0 0 0 0 2 37 76 38 57 4 0 0 0 0 0 3 17 119 2 61 13 1 1 0 0 0 0 0 14 0 0 0 0
7 3 9 0 0 0 0 0 0 0 0 0 19 1 44 27 73 84 99 27 0 0 0 0 0 1 4 12 21 0 1 0 0 0 0 0 0 0 12 0 33 51 28
7 3 9 11 43 24 0 0 0 0 0 0 0 7 6 8 57 75 52 45 0 2 0 0 0 0 0 1 23 89 2 1 2 0 0 0 0 0 8 0 6 96 44
11 11 9 6 13 56 20 0 0 0 0 3 21 0 11 27 65 144 64 14 3 0 0 0 0 0 0 7 20 81 57 6 3 1 1 0 0 0 1 0 3 31 91
10 7 9 8 6 15 84 35 0 0 0 0 1 10 15 29 58 115 114 93 28 17 0 0 1 1 2 6 19 21 49 39 14 3 1 0 0 1 0 5 8 13 42
4 4 5 8 11 10 4 5 18 106 147 172 189 197 165 163 169 163 135 109 79 45 27 14 12 20 26 15 10 14 29 51 12 21 13 1 0 1 1 3 4 6 11
3 3 3 5 7 9 9 7 7 6 20 70 144 100 110 115 129 146 143 120 94 73 57 29 32 36 19 52 52 77 104 139 66 46 40 44 7 0 0 0 1 4 22
1 2 3 4 4 5 7 8 8 8 8 4 4 4 2 2 6 5 4 4 9 10 16 37 49 63 97 94 42 157 195 128 115 55 32 77 45 2 3 16 5 1 15
1 2 2 2 4 4 4 4 5 7 7 5 6 6 4 3 3 5 14 43 46 44 51 6 1 9 17 8 0 66 88 99 60 18 18 23 0 0 0 0 0 0 0
1 2 3 1 3 1 1 1 1 3 4 4 3 6 7 3 1 0 0 0 1 1 0 1 2 0 0 0 0 5 27 2 5 1 0 0 0 0 0 1 1 0 0
0 0 0 0 0 0 0 0 0 0 0 0 2 2 4 4 4 1 2 2 2 2 3 3 2 1 1 0 1 1 2 1 1 1 0 0 0 0 0 0 0 0 0
0 0 0 0 0 0 0 0 0 0 0 0 0 1 2 1 1 2 2 2 2 2 3 3 2 1 2 2 0 0 0 1 1 1 1 1 1 0 0 0 0 0 0
0 0 0 0 0 0 0 0 0 0 0 0 0 0 0 0 0 0 1 1 3 3 2 2 3 4 3 8 6 1 0 1 0 1 2 1 2 2 1 1 1 0 0
0 0 0 0 0 0 0 0 0 0 0 0 0 0 0 0 0 0 0 0 0 0 0 1 1 1 2 3 4 3 1 2 1 1 2 1 1 0 0 1 2 1 2
0 0 0 0 0 0 0 0 0 0 0 0 0 0 0 0 0 0 0 0 0 0 0 0 0 0 0 3 4 5 4 2 0 1 2 3 2 1 0 0 0 0 2
0 0 0 0 0 0 0 0 0 0 0 0 0 0 0 0 0 0 0 0 0 0 0 0 0 0 0 0 3 4 5 4 1 2 2 2 6 3 4 6 4 4 1
0 0 0 0 0 0 0 0 0 0 0 0 0 0 0 0 0 0 0 0 0 0 0 0 0 0 2 3 3 0 0 2 0 0 0 0 0 0 1 0 1 3 2
0 0 0 0 0 0 0 0 0 0 0 0 0 0 0 0 0 0 0 0 3 7 3 2 1 3 4 2 6 6 2 3 1 0 0 0 0 1 5 7 12 14 5
0 0 0 0 0 0 0 0 0 0 0 0 0 0 0 0 0 0 0 0 1 2 2 2 3 1 3 2 1 0 0 1 0 0 0 0 4 6 4 7 5 2 10
CIN
0 0 0 0 0 0 0 0 0 0 0 0 0 0 0 0 0 0 0 0 0 0 0 -3 -1 0 0 -54 0 -44 0 0 0 0 0 0 0 0 0 0 0 0 0
0 0 0 0 0 0 0 0 0 0 0 0 0 0 0 0 0 0 0 0 0 0 0 0 -10 -6 -1 -40 0 0 0 0 0 0 0 0 0 0 0 0 0 0 0
0 0 0 0 0 0 0 0 0 0 0 0 0 0 0 0 0 0 0 0 0 0 0 0 0 -13 -1 -2 0 0 0 0 0 0 0 0 0 0 0 0 0 0 0
0 0 0 0 0 0 0 0 0 0 0 0 0 0 0 0 0 0 0 0 0 0 0 0 0 0 0 -2 -4 0 0 0 0 0 0 0 0 0 0 0 0 0 0
0 0 0 0 0 0 0 0 0 0 0 0 0 0 0 0 0 0 0 0 0 0 0 0 0 0 0 0 -5 0 0 0 0 0 0 0 0 0 -51 0 0 0 0
0 0 0 0 0 0 0 0 0 0 0 0 0 0 0 0 -5 -10 0 0 0 0 0 0 0 0 0 0 0 -11 0 0 0 0 0 0 0 0 -75 -25 0 0 0
0 0 0 0 0 0 0 0 0 0 0 0 0 0 0 -12 -6 -20 -15 0 0 0 0 0 0 0 0 0 0 -1 -1 -1 0 0 0 0 0 0 -21 0 -21 0 0
0 0 0 0 0 0 0 0 0 0 0 0 0 0 0 -5 -16 -30 -17 -3 0 0 0 0 0 0 0 0 -1 -2 -2 -8 -1 0 0 0 0 0 -58 -73 -5 0 0
0 0 0 0 0 0 0 0 0 0 0 0 -92 -63 -4 -14 -20 -37 -24 -21 0 0 0 0 0 0 0 0 -4 0 0 0 0 0 0 0 0 0 -56 0 -12 -8 -8
0 0 0 -1 0 -35 0 0 0 0 0 0 -19 -67 -69 -26 -41 -54 -56 -35 0 -5 0 0 0 0 0 0 0 -3 -21 0 0 -1 0 0 0 0 -7 0 -4 -9 -14
0 0 0 0 -1 -8 -60 0 0 0 0 -56 -14 0 -68 -85 -67 -36 -61 -10 -8 0 0 0 0 0 0 0 0 -2 0 -6 0 0 0 0 0 0 -1 -1 -2 -4 -11
0 0 0 0 0 -9 -5 -20 0 0 0 -4 -3 -49 -46 -60 -32 -20 -31 -29 -24 -20 0 0 0 0 0 0 0 0 0 0 0 -1 0 0 -1 0 -1 -1 -1 -2 -16
0 0 0 0 0 0 0 0 -16 -2 0 -4 -5 -10 -10 -7 -5 -6 -10 -8 -6 -6 -5 -4 0 0 0 0 0 0 0 0 0 -16 -33 -2 -1 0 0 0 0 -15 -42
0 0 0 0 0 0 0 0 0 0 -3 -3 0 -2 0 0 -2 -2 -3 -3 -4 -3 -1 -4 0 0 -2 0 0 0 0 0 -1 -3 -14 -43 -36 0 0 0 0 -80 -27
0 0 0 0 0 0 0 0 0 0 0 0 0 0 0 0 -1 -1 -3 -5 -9 -7 -7 0 0 0 0 0 -7 0 0 -1 0 -3 -16 -15 -18 -76 -64 -68 -57 -15 -29
0 0 0 0 0 0 0 0 0 0 0 0 0 0 0 0 0 0 -8 0 0 -6 -1 -14 -1 -42 -7 -26 0 -5 -6 -7 -9 -5 -4 -2 0 0 0 0 0 0 0
0 0 0 0 0 0 0 0 0 0 0 0 0 0 0 0 0 0 0 0 0 0 0 0 0 0 0 0 0 -69 -33 -44 -15 -13 0 -1 0 0 0 0 0 0 0
0 0 0 0 0 0 0 0 0 0 0 0 0 0 0 0 0 0 0 0 0 0 0 0 0 0 0 0 0 0 -20 0 0 0 0 0 0 0 0 0 0 0 0
0 0 0 0 0 0 0 0 0 0 0 0 0 0 0 0 0 0 0 0 0 0 0 0 0 0 0 0 0 0 0 0 0 0 0 0 0 0 0 0 0 0 0
0 0 0 0 0 0 0 0 0 0 0 0 0 0 0 0 0 0 0 0 0 0 0 0 0 0 0 0 0 0 0 0 0 0 0 0 0 0 0 0 0 0 0
0 0 0 0 0 0 0 0 0 0 0 0 0 0 0 0 0 0 0 0 0 0 0 0 0 0 0 0 0 0 0 0 0 0 0 0 0 0 0 0 0 0 0
0 0 0 0 0 0 0 0 0 0 0 0 0 0 0 0 0 0 0 0 0 0 0 0 0 0 0 0 0 0 0 0 0 0 0 0 0 0 0 0 0 0 0
0 0 0 0 0 0 0 0 0 0 0 0 0 0 0 0 0 0 0 0 0 0 0 0 0 0 0 0 0 0 0 0 0 0 0 0 0 0 0 0 0 0 0
0 0 0 0 0 0 0 0 0 0 0 0 0 0 0 0 0 0 0 0 0 0 0 0 0 0 0 0 0 0 0 0 0 0 0 0 0 0 0 0 0 0 -1
0 0 0 0 0 0 0 0 0 0 0 0 0 0 0 0 0 0 0 0 0 0 0 0 0 0 0 0 0 0 0 0 0 0 0 0 0 0 0 0 0 0 0
0 0 0 0 0 0 0 0 0 0 0 0 0 0 0 0 0 0 0 0 0 0 0 0 0 0 0 0 0 0 0 0 0 0 0 0 0 0 0 0 0 0 0
Wind_Speed
15 16 18 18 19 18 20 20 19 19 14 12 12 12 13 12 13 12 18 17 14 16 16 9 14 13 12 14 14 15 16 11 9 8 8 9 10 10 9 8 8 10 10
20 22 23 20 18 20 19 19 20 19 17 12 11 12 12 12 12 12 14 15 15 16 15 16 14 15 11 14 14 15 9 10 12 9 9 8 9 10 10 9 10 12 9
25 25 23 21 20 20 19 19 20 19 18 18 11 11 11 11 12 12 12 13 17 17 17 17 15 13 12 10 14 15 16 12 12 10 6 6 6 7 10 14 11 12 10
25 24 23 23 20 19 18 19 19 19 18 19 16 20 14 13 12 13 12 13 18 17 15 16 16 15 13 11 14 12 14 14 12 9 10 3 4 5 7 8 13 13 13
25 26 24 22 20 19 17 17 18 19 19 17 19 15 17 13 11 11 17 16 16 18 17 15 16 15 11 14 12 14 14 13 13 13 12 10 4 3 4 8 10 11 11
22 24 23 20 18 16 15 16 18 19 19 18 19 20 20 16 12 13 12 11 11 12 17 16 14 14 13 14 14 16 18 15 14 13 13 12 10 8 7 7 8 11 10
21 22 23 17 14 13 13 14 17 19 19 19 19 21 20 18 18 17 12 13 11 11 13 16 15 13 14 12 16 15 17 18 17 16 13 12 13 9 9 4 6 4 4
22 23 23 16 14 13 13 13 15 17 18 19 19 17 19 12 13 16 12 12 12 11 15 15 15 16 17 15 8 13 14 15 15 19 16 11 11 12 8 7 7 4 5
23 24 22 13 13 12 11 10 11 14 15 17 15 17 16 18 14 16 14 12 13 11 15 15 15 15 15 17 11 9 9 10 13 13 11 10 10 10 9 6 8 8 7
24 23 15 13 12 11 9 7 9 11 11 13 14 14 17 17 16 15 16 16 14 15 14 15 14 14 14 17 16 12 13 13 11 10 13 10 9 9 7 6 6 9 9
21 19 18 19 17 11 9 7 7 9 10 11 13 14 15 17 17 15 16 15 15 16 16 15 16 16 16 15 16 16 16 16 14 13 14 16 16 11 9 8 9 11 9
19 19 19 20 20 16 12 8 6 8 8 10 12 12 13 13 15 15 16 16 17 16 16 16 17 16 17 17 15 17 15 17 15 15 16 18 13 16 14 11 13 13 10
21 19 18 17 17 17 16 16 14 6 5 7 8 10 12 13 15 15 15 15 15 15 15 15 15 16 15 17 18 19 18 15 16 17 16 15 16 15 11 13 11 10 10
18 18 18 17 17 17 16 16 15 13 9 4 6 7 9 12 13 14 15 15 15 15 16 16 17 17 16 16 17 17 17 17 16 18 18 17 16 16 15 13 14 11 11
19 18 17 17 17 18 17 16 15 14 12 11 11 10 10 8 12 15 14 14 15 14 16 15 17 16 14 13 16 19 18 18 18 19 18 18 19 20 19 12 14 14 12
16 16 16 17 17 18 18 16 16 15 13 13 12 12 11 10 6 10 13 13 12 10 11 12 14 14 13 16 19 19 15 14 15 16 16 16 14 15 17 16 14 13 12
13 14 15 15 14 15 15 15 15 13 14 14 15 15 13 13 13 9 10 10 7 10 9 8 4 6 6 17 16 13 9 8 10 13 12 11 9 13 12 13 15 13 16
13 12 12 14 15 15 15 15 15 16 15 15 15 16 16 16 15 17 14 15 12 12 12 11 10 16 15 19 7 8 5 4 1 3 6 7 6 8 9 9 10 14 14
9 10 11 12 13 15 15 13 14 15 16 17 16 16 17 17 16 18 14 14 11 14 11 12 14 20 20 27 23 15 10 9 10 10 12 10 10 12 13 5 9 11 11
7 10 12 13 14 15 14 14 15 15 16 15 16 16 14 15 16 15 14 11 10 12 9 14 17 23 18 27 27 17 8 10 8 8 9 16 12 13 12 6 5 5 6
6 7 7 9 11 13 12 13 14 15 14 13 14 14 15 14 14 13 11 11 10 10 12 13 13 16 19 18 26 24 11 8 7 7 7 6 15 12 11 10 4 5 8
5 5 6 7 8 10 11 12 12 12 12 13 13 14 14 12 10 14 12 14 12 13 13 12 11 11 13 22 22 23 21 17 7 7 6 6 14 13 12 8 11 12 11
5 4 5 6 7 9 9 9 10 10 10 10 10 12 12 13 13 14 14 10 12 11 11 10 10 10 10 11 20 19 18 17 9 8 10 13 12 13 9 13 15 13 5
5 3 4 5 6 7 7 8 8 9 9 10 11 11 11 11 12 9 9 11 11 10 10 10 9 8 10 10 10 10 10 12 10 10 7 9 10 9 9 9 8 7 7
6 5 4 3 4 5 7 8 9 9 9 9 9 10 9 11 10 10 11 10 12 12 9 9 8 9 9 10 14 13 9 9 10 6 6 7 8 8 9 9 8 7 6
7 7 7 5 3 2 5 7 7 7 6 5 5 7 7 7 7 7 6 16 17 18 18 19 14 8 15 18 20 20 18 18 16 8 9 10 10 10 10 10 10 10 11
Wind_Direction
289 292 287 279 266 251 244 242 245 243 236 228 223 224 225 223 222 221 220 219 216 222 219 208 216 207 192 193 191 200 200 194 192 194 201 216 223 220 221 221 221 217 220
293 297 298 287 267 260 250 242 240 238 234 231 222 222 221 219 219 215 219 220 218 215 221 221 217 209 200 193 189 192 188 197 189 185 188 207 211 224 224 224 223 224 215
303 303 297 286 277 263 256 248 244 240 233 227 228 224 226 218 215 213 214 218 218 219 221 224 226 218 213 199 190 190 186 192 195 199 164 202 216 182 206 218 220 220 219
308 305 297 288 280 270 259 252 248 241 234 225 221 214 214 211 211 209 211 215 219 222 220 223 225 231 215 212 191 189 196 194 190 202 213 251 160 191 182 218 218 219 221
311 303 293 288 283 271 262 256 248 239 233 224 218 218 214 215 209 212 213 215 219 219 217 219 221 226 227 217 195 193 199 204 194 196 199 200 218 280 269 215 205 214 217
306 302 292 285 276 267 260 253 245 237 227 223 218 219 216 213 210 206 211 211 211 213 217 217 222 219 228 215 200 200 203 202 207 203 199 201 193 201 188 228 211 207 206
311 301 298 293 285 273 273 260 246 240 229 216 216 216 217 212 210 210 207 205 204 209 212 215 217 220 214 228 212 206 205 204 205 202 200 202 204 217 221 205 197 184 166
320 318 309 296 299 307 296 271 251 244 230 217 209 215 214 215 216 215 212 210 207 207 207 212 220 223 223 220 226 228 213 210 206 211 205 201 205 209 210 206 197 185 193
328 325 318 307 303 304 293 276 249 238 225 217 208 207 212 214 214 221 221 218 215 211 211 214 217 224 230 227 205 197 198 203 204 208 211 196 204 216 209 216 214 211 203
337 335 335 325 320 318 310 284 243 233 229 221 214 212 202 209 214 216 219 220 217 217 215 217 221 226 232 233 221 210 195 197 202 201 201 199 202 213 214 213 226 238 233
345 347 355 357 344 337 325 302 263 228 220 223 221 216 211 206 213 215 215 217 218 214 216 220 222 227 228 228 231 223 206 199 201 201 203 208 206 206 206 209 218 233 229
354 356 358 3 3 343 332 316 283 253 226 214 208 215 215 211 219 217 214 213 215 217 220 225 230 231 227 226 227 231 217 209 207 204 205 207 205 208 206 211 209 223 227
358 0 3 4 1 3 12 6 351 293 229 208 209 210 215 214 217 220 220 219 221 224 224 227 224 227 227 236 231 228 223 212 214 215 208 208 202 204 204 213 212 218 228
360 359 0 1 4 6 10 11 6 4 358 322 267 256 251 234 228 222 219 219 222 227 229 232 230 227 223 227 233 232 229 224 214 212 210 213 207 210 205 211 218 212 217
358 358 358 358 359 2 5 11 13 16 18 34 32 14 343 305 252 237 229 232 236 237 240 241 236 231 232 228 229 230 223 221 224 221 221 215 216 212 213 209 214 207 215
356 357 354 357 1 0 0 4 11 13 14 29 27 9 351 338 274 222 228 230 236 236 232 225 229 234 238 236 213 222 223 220 220 216 217 216 202 207 205 211 212 207 208
354 356 356 357 1 1 358 4 7 7 16 21 16 11 8 16 36 78 80 63 54 63 37 355 179 60 359 201 189 172 192 189 219 222 210 206 199 198 204 212 214 216 214
350 354 354 353 356 3 10 5 13 18 20 20 12 11 15 28 40 60 60 67 58 57 56 44 55 66 37 43 93 161 176 162 184 178 183 192 191 187 196 211 221 226 221
345 349 354 355 355 2 360 12 16 18 20 21 18 14 15 26 30 46 46 54 59 64 49 51 46 56 45 38 45 61 60 60 54 50 47 48 46 26 18 283 231 223 223
354 352 354 354 1 3 359 9 16 17 21 20 23 18 21 27 32 30 36 41 47 60 58 56 48 50 49 39 43 46 47 51 49 46 42 41 31 15 10 356 324 291 262
348 352 5 7 1 358 4 17 15 18 12 15 26 28 28 34 37 42 38 44 48 53 53 54 52 52 44 38 40 40 37 30 35 36 28 23 4 354 358 346 317 301 308
328 353 6 7 9 11 9 18 20 9 13 17 22 26 29 33 35 43 45 47 49 53 51 51 52 45 43 37 35 34 35 18 29 24 8 350 338 341 338 334 326 319 309
295 328 352 356 7 12 17 15 8 6 15 30 33 32 32 29 30 37 39 37 40 43 42 41 43 39 31 28 27 28 27 26 19 3 348 350 351 349 338 346 337 335 318
240 271 316 337 354 4 13 11 8 5 15 26 28 29 34 39 40 43 46 44 38 40 41 40 38 38 35 23 16 11 10 14 7 351 4 357 355 353 338 341 341 340 331
202 202 237 284 340 356 11 9 5 360 6 20 21 23 25 29 30 46 38 44 48 42 45 38 40 30 27 19 15 15 16 11 4 0 12 10 5 356 350 340 333 322 312
204 204 204 197 182 27 4 356 355 348 348 14 21 27 28 27 28 28 49 54 48 44 49 42 38 28 24 19 15 13 16 15 15 29 16 7 360 353 343 336 328 323 318